Time,TemperatureF,DewpointF,PressureIn,WindDirection,WindDirectionDegrees,WindSpeedMPH,WindSpeedGustMPH,Humidity,HourlyPrecipIn,Conditions,Clouds,dailyrainin,SoftwareType,DateUTC
2013-03-01 00:02:00,72.3,69.0,29.90,SE,127,1.0,1.0,88,0.00,,,0.00,weatherlink.com 1.10,2013-03-01 04:02:00,
2013-03-01 00:17:00,72.0,68.0,29.90,SE,127,0.0,0.0,88,0.00,,,0.00,weatherlink.com 1.10,2013-03-01 04:17:00,
2013-03-01 00:32:00,71.8,69.0,29.90,SE,127,0.0,1.0,89,0.00,,,0.00,weatherlink.com 1.10,2013-03-01 04:32:00,
2013-03-01 00:47:00,71.6,68.0,29.89,SE,127,0.0,1.0,89,0.00,,,0.00,weatherlink.com 1.10,2013-03-01 04:47:00,
2013-03-01 01:02:00,71.4,68.0,29.88,SE,134,1.0,2.0,89,0.00,,,0.00,weatherlink.com 1.10,2013-03-01 05:02:00,
2013-03-01 01:17:00,71.2,68.0,29.88,SE,142,0.0,1.0,89,0.00,,,0.00,weatherlink.com 1.10,2013-03-01 05:17:00,
2013-03-01 01:32:00,71.0,68.0,29.87,SE,142,0.0,1.0,89,0.00,,,0.00,weatherlink.com 1.10,2013-03-01 05:32:00,
2013-03-01 01:47:00,70.7,67.0,29.87,SE,142,0.0,0.0,89,0.00,,,0.00,weatherlink.com 1.10,2013-03-01 05:47:00,
2013-03-01 02:02:00,70.5,67.0,29.86,SE,144,0.0,0.0,89,0.00,,,0.00,weatherlink.com 1.10,2013-03-01 06:02:00,
2013-03-01 02:18:00,70.7,68.0,29.86,SE,143,0.0,1.0,90,0.00,,,0.00,weatherlink.com 1.10,2013-03-01 06:18:00,
2013-03-01 02:33:00,70.6,68.0,29.86,SE,135,0.0,2.0,90,0.00,,,0.00,weatherlink.com 1.10,2013-03-01 06:33:00,
2013-03-01 02:48:00,70.3,67.0,29.86,ESE,116,0.0,1.0,90,0.00,,,0.00,weatherlink.com 1.10,2013-03-01 06:48:00,
2013-03-01 03:03:00,70.0,67.0,29.85,ESE,115,0.0,1.0,90,0.00,,,0.00,weatherlink.com 1.10,2013-03-01 07:03:00,
2013-03-01 03:18:00,69.6,67.0,29.85,ESE,115,0.0,1.0,90,0.00,,,0.00,weatherlink.com 1.10,2013-03-01 07:18:00,
2013-03-01 03:33:00,69.5,67.0,29.84,ESE,116,0.0,1.0,90,0.00,,,0.00,weatherlink.com 1.10,2013-03-01 07:33:00,
2013-03-01 03:48:00,69.2,66.0,29.84,ESE,115,0.0,1.0,90,0.00,,,0.00,weatherlink.com 1.10,2013-03-01 07:48:00,
2013-03-01 04:03:00,69.4,67.0,29.84,ESE,116,0.0,1.0,91,0.00,,,0.00,weatherlink.com 1.10,2013-03-01 08:03:00,
2013-03-01 04:18:00,69.3,66.0,29.84,ESE,116,0.0,1.0,90,0.00,,,0.00,weatherlink.com 1.10,2013-03-01 08:18:00,
2013-03-01 04:33:00,69.1,66.0,29.84,ESE,114,0.0,1.0,91,0.00,,,0.00,weatherlink.com 1.10,2013-03-01 08:33:00,
2013-03-01 04:48:00,68.8,66.0,29.85,ESE,116,0.0,1.0,91,0.00,,,0.00,weatherlink.com 1.10,2013-03-01 08:48:00,
2013-03-01 05:03:00,68.8,66.0,29.85,ESE,108,1.0,2.0,91,0.00,,,0.00,weatherlink.com 1.10,2013-03-01 09:03:00,
2013-03-01 05:18:00,68.6,66.0,29.85,ESE,108,0.0,1.0,91,0.00,,,0.00,weatherlink.com 1.10,2013-03-01 09:18:00,
2013-03-01 05:33:00,68.4,66.0,29.85,ESE,114,1.0,1.0,91,0.00,,,0.00,weatherlink.com 1.10,2013-03-01 09:33:00,
2013-03-01 05:48:00,68.2,66.0,29.85,SE,141,0.0,1.0,91,0.00,,,0.00,weatherlink.com 1.10,2013-03-01 09:48:00,
2013-03-01 06:18:00,68.1,66.0,29.87,SE,141,0.0,0.0,92,0.00,,,0.00,weatherlink.com 1.10,2013-03-01 10:18:00,
2013-03-01 06:33:00,68.0,66.0,29.87,SE,141,0.0,1.0,92,0.00,,,0.00,weatherlink.com 1.10,2013-03-01 10:33:00,
2013-03-01 06:48:00,68.0,66.0,29.88,SE,141,0.0,1.0,92,0.00,,,0.00,weatherlink.com 1.10,2013-03-01 10:48:00,
2013-03-01 07:03:00,68.5,67.0,29.88,SE,141,0.0,0.0,93,0.00,,,0.00,weatherlink.com 1.10,2013-03-01 11:03:00,
2013-03-01 07:18:00,70.3,67.0,29.89,SE,134,0.0,1.0,90,0.00,,,0.00,weatherlink.com 1.10,2013-03-01 11:18:00,
2013-03-01 07:33:00,71.8,68.0,29.89,ESE,104,0.0,1.0,86,0.00,,,0.00,weatherlink.com 1.10,2013-03-01 11:33:00,
2013-03-01 07:48:00,74.4,68.0,29.89,ESE,105,0.0,1.0,81,0.00,,,0.00,weatherlink.com 1.10,2013-03-01 11:48:00,
2013-03-01 08:03:00,74.8,69.0,29.89,East,91,0.0,2.0,81,0.00,,,0.00,weatherlink.com 1.10,2013-03-01 12:03:00,
2013-03-01 08:19:00,75.2,69.0,29.90,NNE,26,1.0,2.0,80,0.00,,,0.00,weatherlink.com 1.10,2013-03-01 12:19:00,
2013-03-01 08:34:00,76.9,70.0,29.90,East,94,1.0,2.0,79,0.00,,,0.00,weatherlink.com 1.10,2013-03-01 12:34:00,
2013-03-01 08:49:00,80.2,71.0,29.90,East,94,2.0,2.0,73,0.00,,,0.00,weatherlink.com 1.10,2013-03-01 12:49:00,
2013-03-01 09:04:00,80.7,71.0,29.91,East,80,0.0,3.0,71,0.00,,,0.00,weatherlink.com 1.10,2013-03-01 13:04:00,
2013-03-01 09:19:00,80.7,70.0,29.92,NNE,15,1.0,3.0,70,0.00,,,0.00,weatherlink.com 1.10,2013-03-01 13:19:00,
2013-03-01 09:34:00,81.0,70.0,29.93,North,1,1.0,2.0,70,0.00,,,0.00,weatherlink.com 1.10,2013-03-01 13:34:00,
2013-03-01 09:49:00,81.1,70.0,29.93,NNE,26,3.0,4.0,68,0.00,,,0.00,weatherlink.com 1.10,2013-03-01 13:49:00,
2013-03-01 10:04:00,81.2,70.0,29.93,NW,311,2.0,7.0,69,0.00,,,0.00,weatherlink.com 1.10,2013-03-01 14:04:00,
2013-03-01 10:19:00,81.2,69.0,29.94,NNE,26,6.0,6.0,67,0.00,,,0.00,weatherlink.com 1.10,2013-03-01 14:19:00,
2013-03-01 10:34:00,81.9,69.0,29.94,North,360,1.0,7.0,66,0.00,,,0.00,weatherlink.com 1.10,2013-03-01 14:34:00,
2013-03-01 10:49:00,82.9,70.0,29.93,NNE,32,2.0,5.0,65,0.00,,,0.00,weatherlink.com 1.10,2013-03-01 14:49:00,
2013-03-01 11:04:00,83.6,70.0,29.92,NE,45,4.0,4.0,63,0.00,,,0.00,weatherlink.com 1.10,2013-03-01 15:04:00,
2013-03-01 11:19:00,84.1,69.0,29.92,ENE,75,5.0,7.0,60,0.00,,,0.00,weatherlink.com 1.10,2013-03-01 15:19:00,
2013-03-01 11:34:00,83.7,68.0,29.92,NNE,32,3.0,5.0,60,0.00,,,0.00,weatherlink.com 1.10,2013-03-01 15:34:00,
2013-03-01 11:49:00,84.3,69.0,29.91,NW,313,1.0,5.0,60,0.00,,,0.00,weatherlink.com 1.10,2013-03-01 15:49:00,
2013-03-01 12:04:00,84.8,67.0,29.90,NE,44,3.0,6.0,56,0.00,,,0.00,weatherlink.com 1.10,2013-03-01 16:04:00,
2013-03-01 12:19:00,85.4,68.0,29.89,NE,40,3.0,6.0,56,0.00,,,0.00,weatherlink.com 1.10,2013-03-01 16:19:00,
2013-03-01 12:34:00,87.1,67.0,29.89,NNE,18,4.0,6.0,51,0.00,,,0.00,weatherlink.com 1.10,2013-03-01 16:34:00,
2013-03-01 12:49:00,87.3,66.0,29.88,East,93,1.0,4.0,49,0.00,,,0.00,weatherlink.com 1.10,2013-03-01 16:49:00,
2013-03-01 13:04:00,88.1,66.0,29.87,NE,44,3.0,6.0,48,0.00,,,0.00,weatherlink.com 1.10,2013-03-01 17:04:00,
2013-03-01 13:19:00,88.0,64.0,29.86,NE,45,2.0,6.0,45,0.00,,,0.00,weatherlink.com 1.10,2013-03-01 17:19:00,
2013-03-01 13:34:00,89.1,66.0,29.86,East,83,2.0,5.0,47,0.00,,,0.00,weatherlink.com 1.10,2013-03-01 17:34:00,
2013-03-01 13:49:00,87.0,65.0,29.85,NE,55,5.0,8.0,48,0.00,,,0.00,weatherlink.com 1.10,2013-03-01 17:49:00,
2013-03-01 14:05:00,87.6,63.0,29.84,ENE,57,2.0,7.0,44,0.00,,,0.00,weatherlink.com 1.10,2013-03-01 18:05:00,
2013-03-01 14:20:00,88.1,62.0,29.84,NW,314,1.0,7.0,42,0.00,,,0.00,weatherlink.com 1.10,2013-03-01 18:20:00,
2013-03-01 14:35:00,87.6,64.0,29.82,East,83,3.0,6.0,45,0.00,,,0.00,weatherlink.com 1.10,2013-03-01 18:35:00,
2013-03-01 14:50:00,87.7,63.0,29.82,NNE,30,4.0,6.0,43,0.00,,,0.00,weatherlink.com 1.10,2013-03-01 18:50:00,
2013-03-01 15:05:00,87.0,64.0,29.82,NE,51,3.0,10.0,47,0.00,,,0.00,weatherlink.com 1.10,2013-03-01 19:05:00,
2013-03-01 15:20:00,85.8,64.0,29.82,ENE,61,4.0,10.0,49,0.00,,,0.00,weatherlink.com 1.10,2013-03-01 19:20:00,
2013-03-01 15:50:00,84.7,64.0,29.81,NE,52,6.0,10.0,50,0.00,,,0.00,weatherlink.com 1.10,2013-03-01 19:50:00,
2013-03-01 16:05:00,84.6,68.0,29.81,NE,35,9.0,9.0,57,0.00,,,0.00,weatherlink.com 1.10,2013-03-01 20:05:00,
2013-03-01 16:20:00,84.9,68.0,29.81,NE,53,3.0,8.0,58,0.00,,,0.00,weatherlink.com 1.10,2013-03-01 20:20:00,
2013-03-01 16:35:00,84.9,68.0,29.82,ENE,70,5.0,8.0,57,0.00,,,0.00,weatherlink.com 1.10,2013-03-01 20:35:00,
2013-03-01 16:50:00,83.2,69.0,29.81,NE,44,4.0,9.0,62,0.00,,,0.00,weatherlink.com 1.10,2013-03-01 20:50:00,
2013-03-01 17:20:00,82.1,70.0,29.82,NNE,33,5.0,8.0,66,0.00,,,0.00,weatherlink.com 1.10,2013-03-01 21:20:00,
2013-03-01 17:35:00,82.3,70.0,29.82,ENE,77,0.0,6.0,66,0.00,,,0.00,weatherlink.com 1.10,2013-03-01 21:35:00,
2013-03-01 17:50:00,81.7,68.0,29.82,East,85,1.0,6.0,64,0.00,,,0.00,weatherlink.com 1.10,2013-03-01 21:50:00,
2013-03-01 18:05:00,81.4,68.0,29.83,ESE,107,1.0,3.0,64,0.00,,,0.00,weatherlink.com 1.10,2013-03-01 22:05:00,
2013-03-01 18:20:00,80.5,68.0,29.83,SSE,159,0.0,5.0,66,0.00,,,0.00,weatherlink.com 1.10,2013-03-01 22:20:00,
2013-03-01 18:35:00,79.8,68.0,29.83,SE,127,1.0,3.0,68,0.00,,,0.00,weatherlink.com 1.10,2013-03-01 22:35:00,
2013-03-01 18:50:00,78.9,68.0,29.83,ESE,115,1.0,2.0,70,0.00,,,0.00,weatherlink.com 1.10,2013-03-01 22:50:00,
2013-03-01 19:05:00,78.4,68.0,29.83,SE,137,1.0,2.0,71,0.00,,,0.00,weatherlink.com 1.10,2013-03-01 23:05:00,
2013-03-01 19:20:00,77.9,69.0,29.84,SSW,197,0.0,2.0,73,0.00,,,0.00,weatherlink.com 1.10,2013-03-01 23:20:00,
2013-03-01 19:35:00,77.2,68.0,29.84,WSW,248,1.0,2.0,74,0.00,,,0.00,weatherlink.com 1.10,2013-03-01 23:35:00,
2013-03-01 19:50:00,76.8,68.0,29.85,West,259,0.0,2.0,75,0.00,,,0.00,weatherlink.com 1.10,2013-03-01 23:50:00,
2013-03-01 20:05:00,76.6,69.0,29.85,ESE,107,1.0,2.0,76,0.00,,,0.00,weatherlink.com 1.10,2013-03-02 00:05:00,
2013-03-01 20:20:00,76.2,69.0,29.86,ENE,66,0.0,2.0,77,0.00,,,0.00,weatherlink.com 1.10,2013-03-02 00:20:00,
2013-03-01 20:35:00,76.0,69.0,29.86,ENE,60,0.0,2.0,78,0.00,,,0.00,weatherlink.com 1.10,2013-03-02 00:35:00,
2013-03-01 20:50:00,76.0,69.0,29.87,East,80,0.0,1.0,78,0.00,,,0.00,weatherlink.com 1.10,2013-03-02 00:50:00,
2013-03-01 21:05:00,75.7,69.0,29.87,East,80,0.0,1.0,79,0.00,,,0.00,weatherlink.com 1.10,2013-03-02 01:05:00,
2013-03-01 21:20:00,75.3,68.0,29.87,East,80,0.0,1.0,79,0.00,,,0.00,weatherlink.com 1.10,2013-03-02 01:20:00,
2013-03-01 21:35:00,75.0,69.0,29.88,East,80,1.0,1.0,81,0.00,,,0.00,weatherlink.com 1.10,2013-03-02 01:35:00,
2013-03-01 21:50:00,74.7,69.0,29.88,East,84,0.0,1.0,81,0.00,,,0.00,weatherlink.com 1.10,2013-03-02 01:50:00,
2013-03-01 22:05:00,74.2,68.0,29.88,SE,145,0.0,2.0,82,0.00,,,0.00,weatherlink.com 1.10,2013-03-02 02:05:00,
2013-03-01 22:20:00,73.3,68.0,29.88,SE,134,1.0,2.0,82,0.00,,,0.00,weatherlink.com 1.10,2013-03-02 02:20:00,
2013-03-01 22:35:00,72.6,67.0,29.88,ESE,123,1.0,3.0,82,0.00,,,0.00,weatherlink.com 1.10,2013-03-02 02:35:00,
2013-03-01 22:50:00,72.1,67.0,29.89,SE,140,0.0,1.0,84,0.00,,,0.00,weatherlink.com 1.10,2013-03-02 02:50:00,
2013-03-01 23:05:00,72.0,68.0,29.89,SE,140,0.0,1.0,86,0.00,,,0.00,weatherlink.com 1.10,2013-03-02 03:05:00,
2013-03-01 23:20:00,72.0,68.0,29.89,SE,139,0.0,1.0,86,0.00,,,0.00,weatherlink.com 1.10,2013-03-02 03:20:00,
2013-03-01 23:35:00,71.7,67.0,29.89,SE,125,0.0,1.0,86,0.00,,,0.00,weatherlink.com 1.10,2013-03-02 03:35:00,
2013-03-01 23:50:00,71.5,67.0,29.88,SE,129,0.0,2.0,86,0.00,,,0.00,weatherlink.com 1.10,2013-03-02 03:50:00,